| time (UTC) | temp F | wind direction | speed MPH | gust MPH | rain 1hr in | rain 24hr in | rain mn in | humidity % | barometer mb |
| 20260903211553 | 102 | 160 | 2.0 | 6.0 | 0.00 | 0.00 | 0.00 | 29 | 1005.9 |
| 20260903210053 | 102 | 258 | 5.0 | 12.0 | 0.00 | 0.00 | 0.00 | 29 | 1006.0 |
| 20260903204552 | 102 | 110 | 0.0 | 12.0 | 0.00 | 0.00 | 0.00 | 30 | 1006.2 |
| 20260903203049 | 101 | 30 | 4.0 | 7.0 | 0.00 | 0.00 | 0.00 | 30 | 1006.5 |
| 20260903201543 | 100 | 67 | 4.0 | 9.0 | 0.00 | 0.00 | 0.00 | 31 | 1006.6 |
| 20260903200047 | 100 | 156 | 5.0 | 11.0 | 0.00 | 0.00 | 0.00 | 31 | 1007.0 |
| 20260903194543 | 101 | 63 | 1.0 | 6.0 | 0.00 | 0.00 | 0.00 | 30 | 1007.1 |
| 20260903193038 | 101 | 130 | 5.0 | 10.0 | 0.00 | 0.00 | 0.00 | 30 | 1007.4 |
| 20260903191538 | 100 | 164 | 4.0 | 10.0 | 0.00 | 0.00 | 0.00 | 31 | 1007.7 |
| 20260903190034 | 100 | 171 | 4.0 | 12.0 | 0.00 | 0.00 | 0.00 | 32 | 1008.0 |
| 20260903184531 | 100 | 5 | 2.0 | 8.0 | 0.00 | 0.00 | 0.00 | 30 | 1008.2 |
| 20260903183029 | 100 | 229 | 2.0 | 10.0 | 0.00 | 0.00 | 0.00 | 31 | 1008.5 |
| 20260903181526 | 101 | 229 | 1.0 | 5.0 | 0.00 | 0.00 | 0.00 | 31 | 1008.8 |
| 20260903180038 | 99 | 58 | 3.0 | 9.0 | 0.00 | 0.00 | 0.00 | 32 | 1009.1 |
| 20260903174521 | 99 | 205 | 3.0 | 10.0 | 0.00 | 0.00 | 0.00 | 34 | 1009.2 |
| 20260903173018 | 98 | 229 | 7.0 | 12.0 | 0.00 | 0.00 | 0.00 | 36 | 1009.3 |
| 20260903171515 | 97 | 215 | 3.0 | 12.0 | 0.00 | 0.00 | 0.00 | 40 | 1009.6 |
| 20260903170016 | 96 | 212 | 4.0 | 12.0 | 0.00 | 0.00 | 0.00 | 42 | 1009.7 |
| 20260903164509 | 95 | 186 | 5.0 | 11.0 | 0.00 | 0.00 | 0.00 | 45 | 1009.8 |
| 20260903163004 | 94 | 238 | 7.0 | 16.0 | 0.00 | 0.00 | 0.00 | 46 | 1009.9 |
| 20260903161503 | 93 | 209 | 7.0 | 11.0 | 0.00 | 0.00 | 0.00 | 48 | 1009.8 |
| 20260903160108 | 92 | 190 | 4.0 | 12.0 | 0.00 | 0.00 | 0.00 | 51 | 1009.9 |
| 20260903154553 | 91 | 256 | 7.0 | 12.0 | 0.00 | 0.00 | 0.00 | 52 | 1009.9 |
| 20260903153049 | 89 | 234 | 5.0 | 10.0 | 0.00 | 0.00 | 0.00 | 56 | 1009.9 |
| 20260903151550 | 88 | 255 | 5.0 | 14.0 | 0.00 | 0.00 | 0.00 | 58 | 1009.8 |
| 20260903150044 | 86 | 194 | 5.0 | 11.0 | 0.00 | 0.00 | 0.00 | 63 | 1010.0 |
| 20260903144540 | 84 | 209 | 6.0 | 14.0 | 0.00 | 0.00 | 0.00 | 65 | 1010.0 |
| 20260903143040 | 83 | 224 | 6.0 | 10.0 | 0.00 | 0.00 | 0.00 | 68 | 1010.1 |
| 20260903141537 | 82 | 202 | 7.0 | 10.0 | 0.00 | 0.00 | 0.00 | 69 | 1010.2 |
| 20260903140038 | 81 | 177 | 7.0 | 12.0 | 0.00 | 0.00 | 0.00 | 71 | 1010.3 |
| 20260903134535 | 80 | 206 | 5.0 | 11.0 | 0.00 | 0.00 | 0.00 | 71 | 1010.3 |
| 20260903133034 | 80 | 211 | 4.0 | 8.0 | 0.00 | 0.00 | 0.00 | 73 | 1010.4 |
| 20260903131536 | 78 | 198 | 3.0 | 8.0 | 0.00 | 0.00 | 0.00 | 75 | 1010.3 |
| 20260903130036 | 77 | 180 | 2.0 | 6.0 | 0.00 | 0.00 | 0.00 | 75 | 1010.1 |
| 20260903124529 | 77 | 169 | 3.0 | 7.0 | 0.00 | 0.00 | 0.00 | 75 | 1010.0 |
| 20260903123030 | 76 | 190 | 4.0 | 9.0 | 0.00 | 0.00 | 0.00 | 74 | 1009.8 |
| 20260903121535 | 77 | 221 | 3.0 | 8.0 | 0.00 | 0.00 | 0.00 | 73 | 1009.8 |
| 20260903120029 | 77 | 223 | 3.0 | 8.0 | 0.00 | 0.00 | 0.00 | 72 | 1009.7 |
| 20260903114525 | 77 | 213 | 3.0 | 7.0 | 0.00 | 0.00 | 0.00 | 71 | 1009.6 |
| 20260903113032 | 77 | 189 | 3.0 | 8.0 | 0.00 | 0.00 | 0.00 | 69 | 1009.7 |
| 20260903111521 | 77 | 183 | 4.0 | 11.0 | 0.00 | 0.00 | 0.00 | 67 | 1009.6 |
| 20260903110044 | 77 | 173 | 4.0 | 7.0 | 0.00 | 0.00 | 0.00 | 65 | 1009.6 |
| 20260903104520 | 78 | 214 | 4.0 | 9.0 | 0.00 | 0.00 | 0.00 | 64 | 1009.5 |
| 20260903103018 | 77 | 194 | 4.0 | 7.0 | 0.00 | 0.00 | 0.00 | 63 | 1009.4 |
| 20260903101517 | 77 | 165 | 3.0 | 6.0 | 0.00 | 0.00 | 0.00 | 62 | 1009.4 |
| 20260903100015 | 78 | 200 | 3.0 | 8.0 | 0.00 | 0.00 | 0.00 | 60 | 1009.3 |
| 20260903094528 | 78 | 199 | 4.0 | 8.0 | 0.00 | 0.00 | 0.00 | 60 | 1009.3 |
| 20260903093014 | 78 | 190 | 3.0 | 7.0 | 0.00 | 0.00 | 0.00 | 60 | 1009.4 |
| 20260903091512 | 77 | 166 | 3.0 | 6.0 | 0.00 | 0.00 | 0.00 | 59 | 1009.4 |
| 20260903090011 | 77 | 196 | 2.0 | 5.0 | 0.00 | 0.00 | 0.00 | 59 | 1009.4 |
| 20260903084509 | 78 | 184 | 2.0 | 5.0 | 0.00 | 0.00 | 0.00 | 58 | 1009.4 |
| 20260903083107 | 78 | 187 | 2.0 | 5.0 | 0.00 | 0.00 | 0.00 | 58 | 1009.6 |
| 20260903081507 | 78 | 184 | 2.0 | 6.0 | 0.00 | 0.00 | 0.00 | 58 | 1009.7 |
| 20260903080006 | 78 | 178 | 1.0 | 4.0 | 0.00 | 0.00 | 0.00 | 59 | 1009.8 |
| 20260903074504 | 78 | 176 | 1.0 | 3.0 | 0.00 | 0.00 | 0.00 | 59 | 1009.9 |
| 20260903073002 | 79 | 176 | 1.0 | 3.0 | 0.00 | 0.00 | 0.00 | 58 | 1010.0 |
| 20260903071600 | 79 | 174 | 2.0 | 5.0 | 0.00 | 0.00 | 0.00 | 57 | 1010.1 |
| 20260903070057 | 80 | 169 | 2.0 | 5.0 | 0.00 | 0.00 | 0.00 | 57 | 1010.1 |
| 20260903064602 | 80 | 170 | 2.0 | 4.0 | 0.00 | 0.00 | 0.00 | 56 | 1010.1 |
| 20260903063053 | 81 | 182 | 2.0 | 6.0 | 0.00 | 0.00 | 0.00 | 55 | 1010.1 |
| 20260903061558 | 81 | 157 | 3.0 | 6.0 | 0.00 | 0.00 | 0.00 | 54 | 1010.0 |
| 20260903060051 | 82 | 155 | 2.0 | 6.0 | 0.00 | 0.00 | 0.00 | 53 | 1010.0 |
| 20260903054551 | 83 | 192 | 3.0 | 7.0 | 0.00 | 0.00 | 0.00 | 52 | 1010.1 |
| 20260903053102 | 84 | 165 | 3.0 | 7.0 | 0.00 | 0.00 | 0.00 | 50 | 1010.0 |
| 20260903051542 | 85 | 162 | 4.0 | 10.0 | 0.00 | 0.00 | 0.00 | 50 | 1009.9 |
| 20260903050037 | 85 | 135 | 5.0 | 10.0 | 0.00 | 0.00 | 0.00 | 49 | 1009.8 |
| 20260903044550 | 85 | 175 | 5.0 | 9.0 | 0.00 | 0.00 | 0.00 | 49 | 1009.7 |
| 20260903043036 | 83 | 166 | 4.0 | 7.0 | 0.00 | 0.00 | 0.00 | 49 | 1009.7 |
| 20260903041536 | 83 | 159 | 2.0 | 6.0 | 0.00 | 0.00 | 0.00 | 48 | 1009.7 |
| 20260903040034 | 82 | 190 | 3.0 | 5.0 | 0.00 | 0.00 | 0.00 | 48 | 1010.0 |
| 20260903034534 | 83 | 163 | 1.0 | 5.0 | 0.00 | 0.00 | 0.00 | 47 | 1009.8 |
| 20260903033035 | 84 | 160 | 1.0 | 3.0 | 0.00 | 0.00 | 0.00 | 46 | 1009.6 |
| 20260903031534 | 84 | 138 | 1.0 | 3.0 | 0.00 | 0.00 | 0.00 | 45 | 1009.5 |
| 20260903030040 | 85 | 136 | 1.0 | 2.0 | 0.00 | 0.00 | 0.00 | 44 | 1009.3 |
| 20260903024540 | 86 | 136 | 0.0 | 4.0 | 0.00 | 0.00 | 0.00 | 43 | 1009.0 |
| 20260903023032 | 87 | 136 | 1.0 | 3.0 | 0.00 | 0.00 | 0.00 | 41 | 1008.8 |
| 20260903021535 | 88 | 130 | 1.0 | 3.0 | 0.00 | 0.00 | 0.00 | 40 | 1008.7 |
| 20260903020033 | 90 | 130 | 0.0 | 2.0 | 0.00 | 0.00 | 0.00 | 38 | 1008.5 |
| 20260903014532 | 91 | 130 | 1.0 | 4.0 | 0.00 | 0.00 | 0.00 | 37 | 1008.3 |
| 20260903013030 | 92 | 134 | 1.0 | 4.0 | 0.00 | 0.00 | 0.00 | 36 | 1008.2 |
| 20260903011539 | 93 | 94 | 2.0 | 6.0 | 0.00 | 0.00 | 0.00 | 36 | 1008.1 |
| 20260903010028 | 94 | 119 | 1.0 | 3.0 | 0.00 | 0.00 | 0.00 | 35 | 1007.9 |
| 20260903004532 | 95 | 119 | 1.0 | 3.0 | 0.00 | 0.00 | 0.00 | 33 | 1007.9 |
| 20260903003027 | 96 | 109 | 1.0 | 4.0 | 0.00 | 0.00 | 0.00 | 32 | 1007.8 |
| 20260903001527 | 97 | 105 | 1.0 | 6.0 | 0.00 | 0.00 | 0.00 | 32 | 1007.8 |
| 20260903000026 | 97 | 134 | 2.0 | 7.0 | 0.00 | 0.00 | 0.00 | 31 | 1007.9 |
| 20260902234525 | 99 | 100 | 4.0 | 12.0 | 0.00 | 0.00 | 0.00 | 30 | 1008.0 |
| 20260902233031 | 99 | 76 | 5.0 | 9.0 | 0.00 | 0.00 | 0.00 | 30 | 1008.0 |
| 20260902231524 | 100 | 89 | 4.0 | 13.0 | 0.00 | 0.00 | 0.00 | 30 | 1008.0 |
| 20260902230023 | 101 | 138 | 3.0 | 9.0 | 0.00 | 0.00 | 0.00 | 29 | 1008.0 |
| 20260902224524 | 101 | 80 | 3.0 | 9.0 | 0.00 | 0.00 | 0.00 | 29 | 1008.1 |
| 20260902223021 | 101 | 97 | 5.0 | 9.0 | 0.00 | 0.00 | 0.00 | 29 | 1008.1 |
| 20260902221520 | 101 | 57 | 1.0 | 6.0 | 0.00 | 0.00 | 0.00 | 30 | 1008.2 |
| 20260902220119 | 101 | 175 | 1.0 | 5.0 | 0.00 | 0.00 | 0.00 | 30 | 1008.4 |
| 20260902214513 | 100 | 167 | 2.0 | 6.0 | 0.00 | 0.00 | 0.00 | 31 | 1008.5 |
| 20260902213011 | 99 | 194 | 1.0 | 4.0 | 0.00 | 0.00 | 0.00 | 32 | 1008.6 |